GSAT0206 (GALILEO 10)

Last updated on Tue Oct 21 2025 00:02:35 GMT+0000 (Coordinated Universal Time)

1 40890U 15045B 25292.95745163 -.00000029 00000+0 00000+0 0 9996 2 40890 55.0238 228.2378 0002638 10.1862 349.7969 1.70473041 62940
UTC large
Height (km)
Speed (km/s)
/
Latitude / Longitude
Inclination (degrees)
Orbital Period (minutes)
Azimuth
Elevation
Range (km)
Doppler Factor

Next 0 passes for location: London (51.5072 / 0.1276)

Sorry there are no passes over London.